SXM-7

Last updated on Tue Sep 22 2026 00:03:15 GMT+0000 (Coordinated Universal Time)

1 47240U 20096A 26264.54349759 -.00000209 00000+0 00000+0 0 9990 2 47240 0.0154 137.2293 0004669 348.0359 345.6716 1.00272217 8410
UTC large
Height (km)
Speed (km/s)
/
Latitude / Longitude
Inclination (degrees)
Orbital Period (minutes)
Azimuth
Elevation
Range (km)
Doppler Factor

Next 0 passes for location: London (51.5072 / 0.1276)

No passes found over London.
SXM-7